Saranac Lake, NY

5:14 PM EDT on April 21, 2018 (GMT -0400)
Adirondack Regional

Weather History for KSLK - December, 2013

Change the Weather History Date:

Monday, December 16, 2013

  Actual Average Record
Temperature  
Mean Temperature -5 °F 18 °F  
Max Temperature 12 °F 28 °F 53 °F (1992)
Min Temperature -22 °F 9 °F -22 °F (2013)
Degree Days  
Heating Degree Days 70 46  
Month to date heating degree days 767 692  
Since 1 July heating degree days 3153 2967  
Cooling Degree Days 0 0  
Month to date cooling degree days 0  
Year to date cooling degree days 114  
Moisture  
Dew Point -4 °F    
Average Humidity 77    
Maximum Humidity 91    
Minimum Humidity 62    
Precipitation  
Precipitation T in 0.06 in 0.83 in (2007)
Month to date precipitation 0.53 1.32  
Year to date precipitation 39.38 36.55  
Sea Level Pressure  
Sea Level Pressure 29.88 in    
Wind  
Wind Speed 5 mph (WSW)    
Max Wind Speed 16 mph    
Max Gust Speed 26 mph    
Visibility 7 miles    
Events Snow    
T = Trace of Precipitation, MM = Missing Value Source: NWS Daily Summary

Daily Weather History Graph

Daily Weather History Graph

Search for Another Location

Airport or City:

Astronomy

Dec. 16, 2013 Rise Set
Actual Time 7:26 AM EST 4:18 PM EST
Civil Twilight 6:53 AM EST 4:51 PM EST
Nautical Twilight 6:16 AM EST 5:28 PM EST
Astronomical Twilight 5:41 AM EST 6:03 PM EST
Moon 4:08 PM EST (12/16) 6:30 AM EST (12/16)
Length of Visible Light 9h 58m
Length of Day
8h 51m
Full, 100% of the Moon is Illuminated
Dec 16
Full
Dec 17
Full
Dec 25
Last Quarter
Jan 1
New
Jan 7
First Quarter

Hourly Weather History & Observations

Time (EST) Temp. Windchill Dew Point Humidity Pressure Visibility Wind Dir Wind Speed Gust Speed Precip Events Conditions
12:51 AM 12.0 °F - 9.0 °F 88% 29.67 in 1.8 mi Calm Calm - 0.00 in Snow Light Snow
12:59 AM 12.2 °F - 8.6 °F 85% 29.58 in 2.0 mi Calm Calm - 0.00 in Snow Light Snow
1:20 AM 10.4 °F 2.2 °F 8.6 °F 92% 29.59 in 3.0 mi WSW 4.6 mph - 0.00 in Snow Light Snow
1:51 AM 10.0 °F 1.8 °F 6.1 °F 84% 29.70 in 2.5 mi Variable 4.6 mph - 0.00 in Snow Light Snow
2:05 AM 10.4 °F 0.8 °F 5.0 °F 79% 29.63 in 4.0 mi WSW 5.8 mph 16.1 mph 0.00 in Snow Light Snow
2:21 AM 8.6 °F -1.3 °F 5.0 °F 85% 29.64 in 2.0 mi Variable 5.8 mph - 0.00 in Snow Light Snow
2:31 AM 8.6 °F -2.6 °F 5.0 °F 85% 29.65 in 1.8 mi West 6.9 mph - 0.00 in Snow Light Snow
2:38 AM 8.6 °F -1.3 °F 3.2 °F 79% 29.65 in 2.0 mi WNW 5.8 mph - 0.00 in Snow Light Snow
2:51 AM 8.1 °F -0.5 °F 3.9 °F 83% 29.76 in 1.8 mi WNW 4.6 mph - 0.00 in Snow Light Snow
3:16 AM 6.8 °F -0.1 °F 3.2 °F 85% 29.68 in 2.5 mi Variable 3.5 mph - 0.00 in   Overcast
3:23 AM 6.8 °F -2.0 °F 1.4 °F 79% 29.68 in 4.0 mi Variable 4.6 mph - 0.00 in   Overcast
3:51 AM 3.9 °F -3.4 °F 1.0 °F 88% 29.79 in 4.0 mi Variable 3.5 mph - 0.00 in   Overcast
4:44 AM 3.2 °F -6.2 °F -0.4 °F 85% 29.72 in 10.0 mi West 4.6 mph - N/A   Overcast
4:51 AM 3.0 °F -9.3 °F -0.9 °F 84% 29.83 in 9.0 mi WSW 6.9 mph - N/A   Overcast
5:49 AM -0.4 °F -13.4 °F -4.0 °F 85% 29.77 in 8.0 mi WSW 6.9 mph - N/A   Partly Cloudy
5:51 AM -0.0 °F -13.0 °F -4.0 °F 83% 29.88 in 8.0 mi WSW 6.9 mph - N/A   Scattered Clouds
6:51 AM -2.9 °F -15.0 °F -6.0 °F 87% 29.90 in 9.0 mi WSW 5.8 mph - N/A   Clear
7:13 AM -2.2 °F -10.4 °F -7.6 °F 78% 29.79 in 10.0 mi WSW 3.5 mph - N/A   Scattered Clouds
7:23 AM -4.0 °F -14.6 °F -7.6 °F 85% 29.79 in 10.0 mi SW 4.6 mph - N/A   Mostly Cloudy
7:30 AM -4.0 °F -14.6 °F -7.6 °F 85% 29.79 in 10.0 mi SW 4.6 mph - N/A   Scattered Clouds
7:51 AM -4.0 °F -16.3 °F -7.1 °F 87% 29.91 in 10.0 mi WSW 5.8 mph - N/A   Clear
8:51 AM -2.0 °F -13.9 °F -6.0 °F 83% 29.94 in 5.0 mi Variable 5.8 mph - N/A   Mostly Cloudy
9:51 AM -0.9 °F -15.3 °F -5.1 °F 83% 29.96 in 8.0 mi SW 8.1 mph - N/A   Mostly Cloudy
10:12 AM 1.4 °F -14.5 °F -4.0 °F 78% 29.84 in 10.0 mi WSW 10.4 mph - N/A   Scattered Clouds
10:51 AM 3.9 °F -6.9 °F -2.9 °F 73% 29.96 in 10.0 mi Variable 5.8 mph 16.1 mph N/A   Partly Cloudy
11:16 AM 5.0 °F -10.0 °F -2.2 °F 72% 29.85 in 10.0 mi WSW 10.4 mph 17.3 mph N/A   Mostly Cloudy
11:34 AM 5.0 °F -11.6 °F -4.0 °F 66% 29.85 in 8.0 mi West 12.7 mph 20.7 mph N/A   Scattered Clouds
11:51 AM 3.9 °F -13.7 °F -4.0 °F 70% 29.96 in 10.0 mi WSW 13.8 mph 18.4 mph N/A   Mostly Cloudy
12:51 PM 5.0 °F -10.8 °F -4.0 °F 66% 29.96 in 10.0 mi WSW 11.5 mph - N/A   Clear
1:51 PM 5.0 °F -6.9 °F -5.1 °F 63% 29.97 in 10.0 mi Variable 6.9 mph - N/A   Clear
2:51 PM 3.9 °F -13.0 °F -7.1 °F 60% 30.01 in 10.0 mi West 12.7 mph 20.7 mph N/A   Clear
3:51 PM 3.0 °F -9.3 °F -7.1 °F 63% 30.04 in 10.0 mi West 6.9 mph 17.3 mph N/A   Clear
4:51 PM -0.0 °F - -8.0 °F 69% 30.08 in 10.0 mi Calm Calm - N/A   Clear
5:51 PM -2.0 °F - -8.0 °F 76% 30.12 in 10.0 mi Calm Calm - N/A   Clear
6:51 PM -9.0 °F - -13.0 °F 83% 30.15 in 10.0 mi Calm Calm - N/A   Clear
7:51 PM -9.9 °F - -15.0 °F 78% 30.19 in 10.0 mi Calm Calm - N/A   Clear
8:51 PM -14.1 °F - -17.0 °F 87% 30.20 in 10.0 mi Calm Calm - N/A   Clear
9:51 PM -17.0 °F - -22.0 °F 78% 30.21 in 10.0 mi Calm Calm - N/A   Clear
10:51 PM -20.9 °F - -25.1 °F 81% 30.22 in 10.0 mi Calm Calm - N/A   Clear
11:51 PM -20.9 °F - -26.0 °F 77% 30.22 in 10.0 mi Calm Calm - N/A   Clear